Location: Waco, TX
(31.5480°N, 97.1670°W)
Time: 06:38:17
(UTC-05:00)

ISS - Pass Details

Date: 28 September 2022
Orbit: 414 x 417 km, 51.6° (Epoch: 01 October)

Event Time Altitude Azimuth Distance (km) Brightness Sun altitude
Rises 23:44:19 0° 302° (WNW) 2,355 - -53.3°
Reaches altitude 10° 23:46:37 10° 289° (WNW) 1,489 - -53.6°
Maximum altitude 23:49:26 26° 231° (SW) 867 - -54.0°
Drops below altitude 10° 23:52:16 10° 173° (S) 1,481 - -54.4°
Sets 23:54:33 0° 160° (SSE) 2,339 - -54.7°
